Theta_e
318 318 318 319 321 321 321 321 321 321 321 320 320 320 319 318 317 317 318 318 318 319 321 321 323 325 325 324 324 323 322 322 322 321 321 321 321 321 322 322 323 324
318 318 319 320 321 321 321 321 320 320 319 318 317 317 317 315 315 316 316 317 318 319 320 321 323 324 324 323 322 321 320 320 319 318 318 318 318 318 318 320 321 321
318 318 319 320 321 320 320 319 319 318 317 316 315 314 314 314 314 315 315 317 319 319 320 321 322 323 323 321 320 319 318 318 318 318 318 317 317 317 317 318 318 319
318 318 320 320 320 320 319 317 316 315 315 314 313 313 312 313 314 315 316 317 318 319 320 321 321 321 320 319 319 319 318 318 318 318 318 317 316 316 316 316 316 317
317 318 320 320 319 318 317 315 315 314 314 313 313 312 312 312 314 315 316 317 318 319 320 320 320 319 319 319 318 317 317 317 317 317 316 315 314 314 314 314 314 314
317 318 319 319 318 316 315 314 314 314 314 313 312 311 311 312 314 315 316 316 318 318 318 319 319 318 317 317 316 316 316 316 315 315 314 313 312 312 312 313 312 312
317 318 318 318 316 315 314 314 314 313 313 313 312 311 310 312 314 315 315 315 316 317 317 317 316 316 316 316 316 316 316 315 313 313 312 312 311 311 311 311 311 311
317 318 317 316 315 314 314 314 313 313 313 312 312 311 310 312 314 314 314 314 315 316 315 314 314 315 316 316 316 315 313 312 311 311 311 310 310 310 310 310 310 310
317 317 316 316 315 314 314 314 313 313 312 312 312 310 309 312 313 313 313 314 315 315 315 314 315 315 315 314 313 312 311 310 310 310 310 310 310 309 309 309 310 310
316 317 316 316 315 314 314 313 312 312 312 311 311 309 310 312 313 312 312 313 314 315 314 314 313 312 311 310 310 309 308 308 308 309 309 309 309 309 309 309 309 309
316 317 316 315 315 314 313 312 312 312 312 311 310 309 310 312 312 311 312 312 312 312 311 310 309 308 308 308 307 308 308 308 308 308 308 308 308 308 308 308 308 308
316 317 316 316 315 314 313 312 312 312 311 310 309 308 310 312 312 312 312 311 311 310 309 308 308 307 307 306 306 307 307 307 307 307 307 308 308 308 308 307 307 306
316 316 316 316 315 313 312 312 312 311 310 308 307 308 309 311 312 312 311 310 309 308 308 307 306 305 305 305 305 306 307 307 307 307 307 307 307 307 307 306 305 304
316 316 316 316 315 313 312 312 312 311 309 307 307 308 308 310 311 311 310 309 308 308 307 306 305 305 305 305 305 305 306 307 306 306 306 306 306 306 306 305 304 303
316 316 316 316 314 313 312 312 311 310 308 306 306 307 308 309 310 309 309 308 308 308 306 305 304 302 302 304 305 305 305 306 306 306 305 305 305 305 305 303 302 300
316 316 315 315 314 313 312 312 310 309 306 305 305 306 307 308 309 309 309 308 308 307 306 305 302 298 296 299 302 304 305 304 304 305 304 304 304 304 304 304 302 300
316 315 315 315 313 312 312 311 310 308 306 304 304 305 306 307 308 309 308 308 308 307 306 304 301 297 295 295 297 301 304 304 303 303 303 303 303 303 302 302 303 302
316 315 314 314 313 312 312 311 310 308 305 303 303 304 304 306 307 308 308 308 308 307 306 303 300 298 296 295 295 298 302 303 302 302 302 302 301 301 300 300 301 301
316 315 314 313 312 312 312 311 309 308 305 302 302 303 304 305 307 308 308 308 307 306 305 303 301 299 298 296 294 295 300 302 302 302 302 301 301 300 300 300 299 300
315 315 314 313 312 312 312 310 309 307 304 301 300 302 303 305 307 308 308 308 307 306 305 303 301 300 299 298 294 294 298 301 301 301 301 301 300 299 299 299 299 299
315 314 314 313 313 312 312 311 309 307 304 300 299 301 303 304 306 307 308 308 307 306 305 304 302 301 301 299 296 294 297 301 301 301 300 300 299 299 298 298 298 298
314 315 314 313 313 312 312 311 309 307 304 300 299 300 301 303 304 306 306 307 307 306 306 304 302 301 301 300 297 296 299 302 301 300 300 300 299 298 298 297 298 297
314 314 315 314 313 313 312 311 309 307 304 301 299 299 299 301 302 303 305 306 306 306 305 304 302 301 301 301 299 298 300 302 301 300 300 300 299 298 297 296 296 296
314 315 315 315 314 313 313 312 310 307 304 301 300 299 299 299 300 301 302 303 305 305 305 305 303 300 300 300 299 298 301 302 301 301 300 300 300 298 296 294 292 292
314 314 315 314 314 313 313 312 311 308 305 302 300 300 299 299 298 299 299 300 302 302 301 303 303 298 297 299 298 297 300 302 301 300 300 300 299 298 297 294 291 289
314 314 314 314 314 314 313 312 311 309 306 303 301 301 300 300 299 299 299 299 300 298 296 300 302 297 293 294 295 296 298 301 301 300 300 299 298 297 297 295 293 291
Wind_Speed
4 3 3 3 3 4 6 7 7 8 8 8 8 8 8 9 10 10 9 10 10 9 7 6 6 7 7 8 9 9 11 12 12 12 11 10 9 9 8 9 8 8
4 3 2 2 2 3 6 7 7 7 7 7 8 8 8 9 10 10 10 9 9 8 6 5 6 7 7 7 9 11 11 12 13 13 12 11 11 10 10 9 8 7
4 3 2 2 3 5 6 6 6 6 6 7 8 8 8 9 10 9 10 9 8 7 5 5 6 7 7 8 9 11 11 11 11 11 9 9 10 9 9 9 8 8
3 3 2 2 4 5 6 5 6 6 6 7 8 8 8 9 9 9 9 9 8 7 6 6 7 7 7 7 8 9 9 9 10 9 7 7 8 8 8 8 8 8
2 2 2 3 5 6 5 5 6 6 7 8 8 7 7 8 7 7 7 7 6 6 6 7 8 8 7 7 9 10 9 8 9 8 7 7 7 7 7 8 8 8
2 2 3 4 5 6 5 6 6 6 7 7 8 7 7 7 6 6 6 6 6 6 6 7 8 8 8 9 9 9 8 8 8 8 7 7 8 8 8 8 8 9
2 3 4 4 5 6 6 6 6 6 6 6 7 7 6 6 6 6 6 6 6 6 6 7 7 8 8 8 7 8 8 8 8 8 7 8 8 9 9 9 9 9
3 4 4 5 6 6 6 5 5 4 4 5 6 6 6 5 5 6 6 5 6 6 6 8 8 8 7 6 6 7 8 8 8 8 8 8 9 10 10 10 10 10
4 4 5 6 6 6 5 4 4 3 3 4 5 5 4 4 5 5 5 6 6 6 6 7 6 6 6 6 7 7 7 8 8 9 9 9 10 10 10 10 11 11
4 5 6 6 6 5 5 4 4 3 3 4 5 4 3 4 4 5 5 5 6 6 5 5 5 6 6 7 7 7 8 8 8 9 10 10 11 11 11 12 12 12
5 6 6 6 6 6 5 4 3 3 3 4 4 3 3 4 4 4 5 5 5 5 6 6 7 7 7 7 7 8 8 8 9 9 10 11 11 12 12 13 13 13
6 6 7 7 7 7 5 2 2 2 3 3 3 3 3 4 4 4 4 5 6 6 7 7 7 7 7 7 7 8 8 8 9 9 10 11 12 12 13 14 14 15
7 7 8 8 8 7 4 2 2 2 2 3 3 3 4 4 4 5 5 5 6 7 7 7 7 7 8 7 7 7 8 8 9 9 10 11 11 12 13 14 16 16
8 8 8 9 8 7 5 4 3 2 2 3 3 3 4 4 5 5 5 6 6 6 7 7 8 7 7 7 7 7 7 8 8 9 10 10 11 12 13 14 16 17
9 8 8 9 9 7 6 5 4 2 2 3 4 4 4 4 4 5 5 6 6 7 7 8 8 8 7 6 6 6 7 8 8 9 9 10 11 12 13 14 15 17
10 9 9 10 9 7 6 6 5 3 3 4 4 4 4 4 4 5 5 5 6 7 8 8 9 10 9 8 7 7 7 7 8 9 9 9 10 11 11 12 13 14
11 10 10 10 10 8 7 7 5 4 4 5 5 5 4 4 4 5 5 6 6 7 8 8 9 11 10 8 8 9 8 7 8 9 9 9 9 9 10 10 10 11
12 11 11 11 10 9 8 7 6 5 5 5 6 5 5 5 5 5 6 6 6 7 8 8 9 10 10 8 8 9 10 8 7 8 8 8 9 9 9 9 9 9
13 12 12 12 11 10 10 8 7 6 6 6 6 6 6 6 6 6 7 6 7 7 8 8 8 9 9 9 7 9 11 9 7 8 8 8 9 8 8 8 8 9
14 14 13 12 12 12 11 9 8 7 7 7 7 7 7 7 7 7 7 7 7 7 8 8 8 8 8 8 7 8 11 10 7 8 9 8 9 9 9 9 8 8
15 15 14 14 13 13 12 10 9 9 8 8 8 7 7 7 7 7 8 7 7 7 7 7 7 7 7 7 7 9 11 9 7 7 8 8 9 9 9 9 9 8
16 16 15 15 15 14 13 12 11 10 9 9 9 8 8 7 7 7 8 8 8 7 7 7 7 7 7 6 7 9 10 7 6 7 8 8 9 9 9 9 9 8
17 17 17 16 16 16 14 13 13 12 11 10 10 9 9 8 8 8 8 8 8 7 7 7 7 7 6 6 6 8 8 5 5 6 7 7 8 8 8 8 8 8
18 18 18 17 17 17 15 15 14 13 12 12 11 11 10 9 9 8 8 8 8 7 7 7 7 8 7 6 6 9 8 4 4 6 6 7 8 8 8 8 9 11
19 19 19 18 18 17 16 16 15 14 13 13 12 12 11 10 9 9 8 8 7 8 8 7 6 8 8 7 7 9 9 4 3 6 7 6 7 8 8 8 8 10
19 19 19 19 18 18 17 16 15 15 14 14 13 13 12 11 10 9 9 8 7 8 8 7 6 7 8 8 8 10 10 6 4 5 7 6 7 8 8 8 8 8
Wind_Direction
11 7 6 4 355 1 16 23 21 18 16 13 9 5 358 352 351 351 352 350 350 357 359 359 16 28 33 43 54 58 55 54 57 56 52 54 53 48 46 39 28 26
29 39 32 14 14 31 39 37 29 23 20 14 6 360 351 350 354 354 354 356 359 7 5 7 30 35 37 51 61 63 61 56 51 48 46 46 47 46 43 39 35 31
55 66 63 41 47 53 48 42 38 33 27 19 10 3 356 354 358 358 0 8 13 14 16 30 38 41 55 67 65 62 61 51 35 24 26 30 29 31 31 29 27 26
69 77 75 67 65 61 54 52 51 43 35 26 16 7 0 358 0 1 7 17 20 20 28 40 43 50 67 73 71 69 62 44 24 15 20 23 19 21 24 24 23 24
82 87 84 80 76 73 71 68 57 44 34 27 19 10 3 0 2 6 17 24 23 25 36 44 45 51 65 78 83 76 56 31 20 20 25 26 24 26 28 29 30 31
108 107 101 93 88 89 89 76 59 43 31 25 20 11 3 4 10 18 30 33 32 35 40 45 52 65 79 81 74 58 37 25 22 23 29 33 34 35 36 35 33 35
134 135 126 112 109 109 99 79 60 43 31 27 20 12 6 9 20 33 40 41 46 48 50 60 70 77 76 63 44 32 27 30 30 31 38 41 41 41 40 38 35 36
149 150 142 132 131 127 110 87 67 50 37 31 21 14 13 19 35 49 50 51 61 63 71 81 76 64 52 36 28 33 37 39 39 40 46 46 45 45 42 40 39 39
162 161 155 150 148 140 121 99 82 65 49 34 23 18 24 39 56 63 59 62 73 77 82 82 65 46 41 40 42 47 50 50 48 48 51 50 49 48 45 45 44 42
169 170 164 163 160 148 128 110 90 74 52 30 24 29 47 66 75 75 72 73 76 80 81 72 61 56 55 54 54 55 56 57 57 57 56 55 54 51 48 47 46 44
172 174 170 171 169 152 135 116 89 72 45 25 29 49 71 88 93 87 85 86 83 82 80 74 70 69 66 63 61 60 60 61 62 62 61 60 57 54 52 50 48 45
175 178 175 175 170 155 140 121 94 73 35 29 45 73 88 99 102 96 93 94 89 84 81 75 69 66 65 66 64 64 65 66 66 65 65 63 60 58 56 54 51 48
178 181 179 176 173 162 151 145 129 82 34 46 75 89 98 105 105 101 98 95 91 84 77 71 68 67 66 66 68 69 69 71 71 71 69 67 65 63 62 59 57 53
179 182 180 176 175 167 158 154 139 88 52 81 99 101 103 106 108 109 106 100 93 83 77 72 68 65 65 66 68 71 76 77 75 76 76 73 70 69 66 65 62 60
176 180 181 178 177 174 162 155 143 107 92 106 112 112 109 109 114 117 115 110 100 89 84 76 67 68 77 84 81 75 77 79 77 77 79 78 75 73 71 70 68 67
174 178 183 181 181 179 166 158 147 123 117 122 124 122 118 119 123 124 124 117 107 98 91 80 74 76 81 93 102 93 81 79 82 79 77 79 78 76 76 74 73 73
172 176 184 185 184 180 169 163 152 135 131 133 132 131 129 131 133 133 133 124 115 109 98 89 86 83 79 83 100 102 90 79 81 80 76 78 78 77 79 79 78 78
173 176 182 186 187 180 171 166 157 145 140 140 140 139 139 141 141 142 141 135 127 119 109 103 98 90 83 80 91 103 98 85 80 81 77 77 77 78 81 80 81 81
174 177 182 186 187 181 172 168 164 155 147 145 146 145 145 146 147 148 148 146 139 127 119 117 110 98 89 82 85 102 101 88 82 83 81 78 77 76 79 81 82 83
176 178 182 186 186 181 175 173 169 159 152 151 151 150 151 151 151 153 153 151 148 137 128 128 124 111 97 86 85 101 101 91 86 87 84 82 79 77 78 79 78 81
179 180 182 185 186 182 178 177 170 161 156 157 155 155 155 155 155 160 160 157 157 148 137 139 141 128 110 95 92 102 101 92 88 92 89 85 83 81 80 79 78 80
180 180 182 185 185 183 182 178 171 166 163 161 160 159 158 159 159 163 165 164 163 158 149 151 158 149 128 114 106 105 102 96 97 100 96 92 90 85 83 81 76 77
181 181 182 185 185 185 184 179 173 170 167 165 165 163 161 162 161 162 167 169 167 168 161 157 170 174 154 138 129 118 111 111 117 111 103 103 99 91 87 89 94 97
182 182 182 184 186 186 184 179 176 173 170 169 169 166 164 163 162 160 164 167 168 174 171 163 177 191 178 163 154 137 128 132 134 124 119 114 110 103 96 97 112 120
181 183 183 185 187 187 184 182 179 174 172 171 170 169 165 163 163 161 161 163 166 178 180 170 180 198 191 181 173 153 142 148 152 136 131 127 123 118 109 102 109 120
181 183 184 185 187 186 185 186 183 177 173 172 172 172 168 166 166 163 160 159 161 171 177 170 176 196 195 188 184 169 154 152 163 152 142 139 138 132 126 119 112 114